| time (UTC) | temp C | wind direction | speed KPH | gust KPH | rain 1hr cm | rain 24hr cm | rain mn cm | humidity % | barometer mb |
| 20260905091347 | 16 | 350 | 1.6 | 4.8 | 0.00 | 0.00 | 0.00 | 92 | 1013.4 |
| 20260905090842 | 16 | 350 | 1.6 | 4.8 | 0.00 | 0.00 | 0.00 | 92 | 1013.4 |
| 20260905090338 | 16 | 350 | 0.0 | 3.2 | 0.00 | 0.00 | 0.00 | 92 | 1013.3 |
| 20260905085846 | 16 | 350 | 0.0 | 3.2 | 0.00 | 0.00 | 0.00 | 92 | 1013.3 |
| 20260905085343 | 16 | 350 | 0.0 | 4.8 | 0.00 | 0.00 | 0.00 | 92 | 1013.2 |
| 20260905084841 | 16 | 350 | 1.6 | 4.8 | 0.00 | 0.00 | 0.00 | 92 | 1013.1 |
| 20260905084337 | 16 | 349 | 1.6 | 3.2 | 0.00 | 0.00 | 0.00 | 91 | 1013.0 |
| 20260905083852 | 16 | 349 | 0.0 | 1.6 | 0.00 | 0.00 | 0.00 | 91 | 1012.9 |
| 20260905083349 | 16 | 349 | 0.0 | 1.6 | 0.00 | 0.00 | 0.00 | 91 | 1013.0 |
| 20260905082844 | 16 | 349 | 0.0 | 3.2 | 0.00 | 0.00 | 0.00 | 91 | 1013.0 |
| 20260905082341 | 16 | 349 | 0.0 | 4.8 | 0.00 | 0.00 | 0.00 | 91 | 1013.1 |
| 20260905081837 | 16 | 349 | 1.6 | 4.8 | 0.00 | 0.00 | 0.00 | 91 | 1013.0 |
| 20260905081333 | 16 | 349 | 1.6 | 4.8 | 0.00 | 0.00 | 0.00 | 91 | 1013.2 |
| 20260905080849 | 16 | 349 | 1.6 | 4.8 | 0.00 | 0.00 | 0.00 | 91 | 1013.2 |
| 20260905080345 | 17 | 349 | 1.6 | 6.4 | 0.00 | 0.00 | 0.00 | 91 | 1013.2 |
| 20260905075834 | 17 | 11 | 3.2 | 8.0 | 0.00 | 0.00 | 0.00 | 91 | 1013.1 |
| 20260905075411 | 17 | 28 | 1.6 | 6.4 | 0.00 | 0.00 | 0.00 | 91 | 1013.1 |
| 20260905074906 | 17 | 17 | 1.6 | 6.4 | 0.00 | 0.00 | 0.00 | 91 | 1013.2 |
| 20260905074341 | 17 | 26 | 3.2 | 8.0 | 0.00 | 0.00 | 0.00 | 90 | 1013.2 |
| 20260905073857 | 17 | 30 | 3.2 | 6.4 | 0.00 | 0.00 | 0.00 | 90 | 1013.3 |
| 20260905073335 | 17 | 16 | 3.2 | 8.0 | 0.00 | 0.00 | 0.00 | 90 | 1013.4 |
| 20260905072850 | 17 | 57 | 3.2 | 8.0 | 0.00 | 0.00 | 0.00 | 90 | 1013.4 |
| 20260905072347 | 17 | 360 | 1.6 | 8.0 | 0.00 | 0.00 | 0.00 | 90 | 1013.4 |
| 20260905071903 | 17 | 36 | 3.2 | 8.0 | 0.00 | 0.00 | 0.00 | 89 | 1013.6 |
| 20260905071339 | 17 | 11 | 1.6 | 4.8 | 0.00 | 0.00 | 0.00 | 89 | 1013.7 |
| 20260905070835 | 17 | 15 | 1.6 | 4.8 | 0.00 | 0.00 | 0.00 | 89 | 1013.6 |
| 20260905070331 | 17 | 26 | 1.6 | 4.8 | 0.00 | 0.00 | 0.00 | 89 | 1013.6 |
| 20260905065838 | 17 | 26 | 1.6 | 4.8 | 0.00 | 0.00 | 0.00 | 89 | 1013.6 |
| 20260905065335 | 17 | 26 | 1.6 | 4.8 | 0.00 | 0.00 | 0.00 | 89 | 1013.7 |
| 20260905064851 | 17 | 9 | 0.0 | 4.8 | 0.00 | 0.00 | 0.00 | 89 | 1013.6 |
| 20260905064408 | 17 | 355 | 1.6 | 4.8 | 0.00 | 0.00 | 0.00 | 88 | 1013.7 |
| 20260905063841 | 17 | 355 | 1.6 | 4.8 | 0.00 | 0.00 | 0.00 | 88 | 1013.7 |
| 20260905063338 | 17 | 355 | 1.6 | 4.8 | 0.00 | 0.00 | 0.00 | 88 | 1013.8 |
| 20260905062834 | 17 | 355 | 1.6 | 4.8 | 0.00 | 0.00 | 0.00 | 88 | 1013.9 |
| 20260905062410 | 17 | 355 | 1.6 | 4.8 | 0.00 | 0.00 | 0.00 | 88 | 1013.9 |
| 20260905061846 | 17 | 5 | 1.6 | 4.8 | 0.00 | 0.00 | 0.00 | 88 | 1014.0 |
| 20260905061342 | 17 | 355 | 1.6 | 4.8 | 0.00 | 0.00 | 0.00 | 88 | 1013.8 |
| 20260905060839 | 17 | 5 | 1.6 | 6.4 | 0.00 | 0.00 | 0.00 | 88 | 1014.0 |
| 20260905060354 | 17 | 360 | 1.6 | 6.4 | 0.00 | 0.00 | 0.00 | 89 | 1014.1 |
| 20260905055843 | 17 | 14 | 3.2 | 8.0 | 0.00 | 0.00 | 0.00 | 89 | 1014.0 |
| 20260905055338 | 17 | 355 | 3.2 | 9.7 | 0.00 | 0.00 | 0.00 | 89 | 1014.1 |
| 20260905054835 | 17 | 322 | 1.6 | 9.7 | 0.00 | 0.00 | 0.00 | 89 | 1014.1 |
| 20260905054335 | 17 | 15 | 3.2 | 6.4 | 0.00 | 0.00 | 0.00 | 89 | 1014.1 |
| 20260905053852 | 17 | 27 | 3.2 | 6.4 | 0.00 | 0.00 | 0.00 | 89 | 1014.1 |
| 20260905053348 | 17 | 349 | 1.6 | 8.0 | 0.00 | 0.00 | 0.00 | 89 | 1014.2 |
| 20260905052844 | 17 | 47 | 1.6 | 8.0 | 0.00 | 0.00 | 0.00 | 89 | 1014.2 |
| 20260905052340 | 17 | 338 | 1.6 | 6.4 | 0.00 | 0.00 | 0.00 | 89 | 1014.1 |
| 20260905051837 | 17 | 336 | 0.0 | 6.4 | 0.00 | 0.00 | 0.00 | 89 | 1014.0 |
| 20260905051333 | 17 | 314 | 1.6 | 6.4 | 0.00 | 0.00 | 0.00 | 90 | 1014.0 |
| 20260905050850 | 17 | 325 | 1.6 | 8.0 | 0.00 | 0.00 | 0.00 | 90 | 1014.0 |
| 20260905050346 | 17 | 298 | 3.2 | 8.0 | 0.00 | 0.00 | 0.00 | 90 | 1014.1 |
| 20260905045854 | 17 | 316 | 1.6 | 6.4 | 0.00 | 0.00 | 0.00 | 91 | 1014.1 |
| 20260905045350 | 17 | 313 | 1.6 | 4.8 | 0.00 | 0.00 | 0.00 | 91 | 1014.1 |
| 20260905044907 | 17 | 321 | 0.0 | 4.8 | 0.00 | 0.00 | 0.00 | 91 | 1014.1 |
| 20260905044402 | 17 | 321 | 1.6 | 4.8 | 0.00 | 0.00 | 0.00 | 91 | 1014.1 |
| 20260905043838 | 17 | 304 | 1.6 | 4.8 | 0.00 | 0.00 | 0.00 | 92 | 1014.2 |
| 20260905043354 | 17 | 325 | 3.2 | 4.8 | 0.00 | 0.00 | 0.00 | 92 | 1014.2 |
| 20260905042850 | 18 | 304 | 1.6 | 4.8 | 0.00 | 0.00 | 0.00 | 92 | 1014.2 |
| 20260905042345 | 18 | 279 | 1.6 | 4.8 | 0.00 | 0.00 | 0.00 | 92 | 1014.3 |
| 20260905041842 | 18 | 279 | 1.6 | 6.4 | 0.00 | 0.00 | 0.00 | 93 | 1014.3 |
| 20260905041338 | 18 | 18 | 1.6 | 4.8 | 0.00 | 0.00 | 0.00 | 93 | 1014.4 |
| 20260905040834 | 18 | 22 | 1.6 | 4.8 | 0.00 | 0.00 | 0.00 | 93 | 1014.2 |
| 20260905040330 | 18 | 22 | 1.6 | 3.2 | 0.00 | 0.00 | 0.00 | 93 | 1014.3 |
| 20260905035838 | 18 | 22 | 1.6 | 3.2 | 0.00 | 0.00 | 0.00 | 93 | 1014.3 |
| 20260905035339 | 18 | 22 | 0.0 | 1.6 | 0.00 | 0.00 | 0.00 | 93 | 1014.3 |
| 20260905034855 | 18 | 22 | 0.0 | 1.6 | 0.00 | 0.00 | 0.00 | 93 | 1014.3 |
| 20260905034350 | 18 | 22 | 0.0 | 1.6 | 0.00 | 0.00 | 0.00 | 93 | 1014.2 |
| 20260905033846 | 18 | 22 | 0.0 | 0.0 | 0.00 | 0.00 | 0.00 | 93 | 1014.2 |
| 20260905033344 | 18 | 22 | 0.0 | 0.0 | 0.00 | 0.00 | 0.00 | 93 | 1014.3 |
| 20260905032838 | 18 | 22 | 0.0 | 0.0 | 0.00 | 0.00 | 0.00 | 93 | 1014.4 |
| 20260905032335 | 18 | 22 | 0.0 | 0.0 | 0.00 | 0.00 | 0.00 | 93 | 1014.3 |
| 20260905031913 | 18 | 22 | 0.0 | 0.0 | 0.00 | 0.00 | 0.00 | 93 | 1014.3 |
| 20260905031347 | 18 | 22 | 0.0 | 0.0 | 0.00 | 0.00 | 0.00 | 93 | 1014.2 |
| 20260905030904 | 18 | 22 | 0.0 | 0.0 | 0.00 | 0.00 | 0.00 | 93 | 1014.2 |
| 20260905030339 | 18 | 22 | 0.0 | 1.6 | 0.00 | 0.00 | 0.00 | 92 | 1014.1 |
| 20260905025848 | 18 | 22 | 0.0 | 1.6 | 0.00 | 0.00 | 0.00 | 92 | 1014.2 |
| 20260905025343 | 18 | 22 | 0.0 | 1.6 | 0.00 | 0.00 | 0.00 | 92 | 1014.1 |
| 20260905024839 | 18 | 22 | 0.0 | 1.6 | 0.00 | 0.00 | 0.00 | 92 | 1014.2 |
| 20260905024335 | 18 | 22 | 0.0 | 1.6 | 0.00 | 0.00 | 0.00 | 92 | 1014.2 |
| 20260905023912 | 18 | 22 | 0.0 | 1.6 | 0.00 | 0.00 | 0.00 | 92 | 1014.2 |
| 20260905023349 | 18 | 22 | 0.0 | 1.6 | 0.00 | 0.00 | 0.00 | 92 | 1014.2 |
| 20260905022846 | 18 | 22 | 0.0 | 0.0 | 0.00 | 0.00 | 0.00 | 91 | 1014.3 |
| 20260905022342 | 18 | 22 | 0.0 | 1.6 | 0.00 | 0.00 | 0.00 | 91 | 1014.3 |
| 20260905021858 | 18 | 22 | 0.0 | 1.6 | 0.00 | 0.00 | 0.00 | 91 | 1014.3 |
| 20260905021332 | 18 | 22 | 0.0 | 0.0 | 0.00 | 0.00 | 0.00 | 91 | 1014.3 |
| 20260905020910 | 18 | 22 | 0.0 | 0.0 | 0.00 | 0.00 | 0.00 | 91 | 1014.3 |
| 20260905020344 | 19 | 22 | 0.0 | 0.0 | 0.00 | 0.00 | 0.00 | 91 | 1014.2 |
| 20260905015912 | 19 | 22 | 0.0 | 0.0 | 0.00 | 0.00 | 0.00 | 91 | 1014.3 |
| 20260905015408 | 19 | 22 | 0.0 | 0.0 | 0.00 | 0.00 | 0.00 | 91 | 1014.3 |
| 20260905014843 | 19 | 22 | 0.0 | 0.0 | 0.00 | 0.00 | 0.00 | 91 | 1014.3 |
| 20260905014340 | 19 | 22 | 0.0 | 0.0 | 0.00 | 0.00 | 0.00 | 90 | 1014.3 |
| 20260905013837 | 19 | 22 | 0.0 | 1.6 | 0.00 | 0.00 | 0.00 | 90 | 1014.3 |
| 20260905013337 | 19 | 22 | 0.0 | 1.6 | 0.00 | 0.00 | 0.00 | 90 | 1014.4 |
| 20260905012853 | 19 | 22 | 0.0 | 0.0 | 0.00 | 0.00 | 0.00 | 90 | 1014.3 |
| 20260905012348 | 19 | 22 | 0.0 | 0.0 | 0.00 | 0.00 | 0.00 | 90 | 1014.4 |
| 20260905011842 | 19 | 22 | 0.0 | 0.0 | 0.00 | 0.00 | 0.00 | 90 | 1014.3 |
| 20260905011339 | 19 | 22 | 0.0 | 0.0 | 0.00 | 0.00 | 0.00 | 89 | 1014.3 |
| 20260905010837 | 19 | 22 | 0.0 | 0.0 | 0.00 | 0.00 | 0.00 | 89 | 1014.2 |
| 20260905010331 | 19 | 22 | 0.0 | 0.0 | 0.00 | 0.00 | 0.00 | 89 | 1014.2 |
| 20260905005840 | 19 | 22 | 0.0 | 0.0 | 0.00 | 0.00 | 0.00 | 89 | 1014.2 |
| 20260905005336 | 19 | 22 | 0.0 | 0.0 | 0.00 | 0.00 | 0.00 | 89 | 1014.2 |
| 20260905004851 | 19 | 22 | 0.0 | 0.0 | 0.00 | 0.00 | 0.00 | 89 | 1014.2 |
| 20260905004406 | 20 | 22 | 0.0 | 0.0 | 0.00 | 0.00 | 0.00 | 89 | 1014.3 |
| 20260905003841 | 20 | 22 | 0.0 | 0.0 | 0.00 | 0.00 | 0.00 | 88 | 1014.4 |
| 20260905003336 | 20 | 22 | 0.0 | 0.0 | 0.00 | 0.00 | 0.00 | 88 | 1014.5 |
| 20260905002839 | 20 | 22 | 0.0 | 0.0 | 0.00 | 0.00 | 0.00 | 88 | 1014.4 |
| 20260905002335 | 20 | 22 | 0.0 | 0.0 | 0.00 | 0.00 | 0.00 | 88 | 1014.5 |
| 20260905001912 | 20 | 22 | 0.0 | 0.0 | 0.00 | 0.00 | 0.00 | 88 | 1014.5 |
| 20260905001345 | 20 | 22 | 0.0 | 0.0 | 0.00 | 0.00 | 0.00 | 87 | 1014.4 |
| 20260905000842 | 20 | 22 | 0.0 | 0.0 | 0.00 | 0.00 | 0.00 | 87 | 1014.2 |
| 20260905000357 | 20 | 22 | 0.0 | 0.0 | 0.00 | 0.00 | 0.00 | 86 | 1014.2 |
| 20260904235905 | 20 | 22 | 0.0 | 0.0 | 0.00 | 0.03 | 0.00 | 86 | 1014.1 |
| 20260904235339 | 20 | 22 | 0.0 | 0.0 | 0.00 | 0.03 | 0.00 | 86 | 1014.3 |
| 20260904234836 | 20 | 22 | 0.0 | 0.0 | 0.00 | 0.03 | 0.00 | 85 | 1014.4 |
| 20260904234337 | 20 | 22 | 0.0 | 0.0 | 0.00 | 0.03 | 0.00 | 85 | 1014.3 |
| 20260904233834 | 20 | 22 | 0.0 | 0.0 | 0.00 | 0.03 | 0.00 | 85 | 1014.4 |
| 20260904233350 | 20 | 22 | 0.0 | 0.0 | 0.00 | 0.03 | 0.00 | 85 | 1014.3 |
| 20260904232847 | 20 | 22 | 0.0 | 0.0 | 0.00 | 0.03 | 0.00 | 84 | 1014.2 |
| 20260904232343 | 21 | 22 | 0.0 | 0.0 | 0.00 | 0.03 | 0.00 | 84 | 1014.1 |
| 20260904231839 | 21 | 22 | 0.0 | 0.0 | 0.00 | 0.03 | 0.00 | 84 | 1014.1 |
| 20260904231335 | 21 | 22 | 0.0 | 0.0 | 0.00 | 0.03 | 0.00 | 83 | 1013.9 |
| 20260904230852 | 21 | 22 | 0.0 | 0.0 | 0.00 | 0.03 | 0.00 | 83 | 1013.9 |
| 20260904230346 | 21 | 22 | 0.0 | 0.0 | 0.00 | 0.03 | 0.00 | 82 | 1013.9 |
| 20260904225837 | 21 | 22 | 0.0 | 0.0 | 0.00 | 0.03 | 0.00 | 81 | 1013.9 |
| 20260904225353 | 21 | 22 | 0.0 | 0.0 | 0.00 | 0.03 | 0.00 | 81 | 1013.8 |
| 20260904224910 | 21 | 22 | 0.0 | 1.6 | 0.00 | 0.03 | 0.00 | 81 | 1013.9 |
| 20260904224344 | 21 | 22 | 0.0 | 1.6 | 0.00 | 0.03 | 0.00 | 80 | 1013.8 |
| 20260904223842 | 21 | 22 | 0.0 | 0.0 | 0.00 | 0.03 | 0.00 | 79 | 1013.8 |
| 20260904223336 | 21 | 22 | 0.0 | 3.2 | 0.00 | 0.03 | 0.00 | 79 | 1013.7 |
| 20260904222851 | 21 | 22 | 0.0 | 3.2 | 0.00 | 0.03 | 0.00 | 78 | 1013.6 |
| 20260904222345 | 21 | 22 | 0.0 | 6.4 | 0.00 | 0.03 | 0.00 | 78 | 1013.6 |
| 20260904221840 | 21 | 22 | 1.6 | 6.4 | 0.00 | 0.03 | 0.00 | 77 | 1013.5 |
| 20260904221333 | 21 | 26 | 1.6 | 4.8 | 0.00 | 0.03 | 0.00 | 78 | 1013.3 |
| 20260904220833 | 21 | 14 | 1.6 | 3.2 | 0.00 | 0.03 | 0.00 | 78 | 1013.1 |
| 20260904220348 | 21 | 14 | 0.0 | 0.0 | 0.00 | 0.03 | 0.00 | 79 | 1013.1 |
| 20260904215835 | 21 | 14 | 0.0 | 0.0 | 0.00 | 0.03 | 0.00 | 80 | 1013.1 |
| 20260904215351 | 21 | 14 | 0.0 | 0.0 | 0.00 | 0.03 | 0.00 | 79 | 1013.1 |
| 20260904214846 | 21 | 14 | 0.0 | 1.6 | 0.00 | 0.03 | 0.00 | 79 | 1013.0 |
| 20260904214339 | 21 | 14 | 0.0 | 3.2 | 0.00 | 0.03 | 0.00 | 80 | 1013.1 |
| 20260904213913 | 21 | 14 | 0.0 | 3.2 | 0.00 | 0.03 | 0.00 | 80 | 1013.0 |
| 20260904213347 | 21 | 14 | 0.0 | 1.6 | 0.00 | 0.03 | 0.00 | 78 | 1012.9 |
| 20260904212842 | 21 | 14 | 0.0 | 3.2 | 0.00 | 0.03 | 0.00 | 78 | 1013.0 |
| 20260904212337 | 21 | 14 | 0.0 | 4.8 | 0.00 | 0.03 | 0.00 | 78 | 1013.2 |
| 20260904211852 | 21 | 14 | 0.0 | 4.8 | 0.00 | 0.03 | 0.00 | 77 | 1013.2 |
| 20260904211346 | 21 | 123 | 0.0 | 3.2 | 0.00 | 0.03 | 0.00 | 78 | 1013.3 |
| 20260904210840 | 21 | 130 | 0.0 | 3.2 | 0.00 | 0.03 | 0.00 | 78 | 1013.3 |
| 20260904210335 | 21 | 130 | 0.0 | 3.2 | 0.00 | 0.03 | 0.00 | 81 | 1013.2 |
| 20260904205841 | 21 | 130 | 0.0 | 3.2 | 0.00 | 0.03 | 0.00 | 81 | 1013.6 |
| 20260904205335 | 21 | 130 | 0.0 | 0.0 | 0.00 | 0.03 | 0.00 | 79 | 1013.7 |
| 20260904204911 | 21 | 130 | 0.0 | 1.6 | 0.00 | 0.03 | 0.00 | 80 | 1013.7 |
| 20260904204345 | 21 | 130 | 0.0 | 1.6 | 0.00 | 0.03 | 0.00 | 81 | 1013.7 |
| 20260904203839 | 21 | 130 | 0.0 | 1.6 | 0.00 | 0.03 | 0.00 | 79 | 1013.7 |
| 20260904203334 | 21 | 130 | 0.0 | 3.2 | 0.00 | 0.03 | 0.00 | 78 | 1013.8 |
| 20260904202847 | 21 | 130 | 0.0 | 3.2 | 0.00 | 0.03 | 0.00 | 77 | 1013.8 |
| 20260904202342 | 21 | 90 | 0.0 | 4.8 | 0.00 | 0.03 | 0.00 | 77 | 1013.8 |
| 20260904201840 | 21 | 92 | 0.0 | 4.8 | 0.00 | 0.03 | 0.00 | 80 | 1013.9 |
| 20260904201356 | 22 | 306 | 1.6 | 8.0 | 0.00 | 0.03 | 0.00 | 79 | 1013.9 |
| 20260904200906 | 22 | 304 | 3.2 | 8.0 | 0.00 | 0.03 | 0.00 | 78 | 1013.8 |
| 20260904200344 | 22 | 5 | 3.2 | 4.8 | 0.00 | 0.03 | 0.00 | 80 | 1013.9 |
| 20260904195849 | 22 | 84 | 0.0 | 9.7 | 0.00 | 0.03 | 0.00 | 79 | 1014.1 |
| 20260904192337 | 21 | 278 | 1.6 | 6.4 | 0.00 | 0.03 | 0.00 | 82 | 1014.4 |
| 20260904191859 | 21 | 246 | 1.6 | 6.4 | 0.00 | 0.03 | 0.00 | 83 | 1014.6 |
| 20260904191341 | 21 | 229 | 1.6 | 4.8 | 0.00 | 0.03 | 0.00 | 82 | 1014.6 |
| 20260904190842 | 21 | 251 | 1.6 | 4.8 | 0.00 | 0.03 | 0.00 | 83 | 1014.8 |
| 20260904190330 | 21 | 351 | 0.0 | 4.8 | 0.00 | 0.03 | 0.00 | 84 | 1014.7 |
| 20260904185836 | 21 | 21 | 1.6 | 4.8 | 0.00 | 0.03 | 0.00 | 83 | 1014.9 |
| 20260904185331 | 22 | 124 | 3.2 | 6.4 | 0.00 | 0.03 | 0.00 | 82 | 1014.9 |
| 20260904184838 | 22 | 93 | 3.2 | 6.4 | 0.00 | 0.03 | 0.00 | 81 | 1015.0 |
| 20260904184342 | 22 | 115 | 3.2 | 6.4 | 0.00 | 0.03 | 0.00 | 80 | 1015.0 |
| 20260904183850 | 22 | 146 | 3.2 | 6.4 | 0.00 | 0.03 | 0.00 | 81 | 1014.9 |
| 20260904183351 | 22 | 115 | 3.2 | 6.4 | 0.00 | 0.03 | 0.00 | 82 | 1014.9 |
| 20260904182838 | 22 | 217 | 1.6 | 12.9 | 0.00 | 0.03 | 0.00 | 80 | 1014.9 |
| 20260904182333 | 22 | 215 | 4.8 | 12.9 | 0.00 | 0.03 | 0.00 | 79 | 1014.9 |
| 20260904181832 | 22 | 244 | 1.6 | 11.3 | 0.00 | 0.03 | 0.00 | 79 | 1014.8 |
| 20260904181338 | 22 | 119 | 1.6 | 8.0 | 0.00 | 0.03 | 0.00 | 80 | 1015.0 |
| 20260904180834 | 22 | 215 | 3.2 | 6.4 | 0.00 | 0.03 | 0.00 | 81 | 1015.1 |
| 20260904180330 | 22 | 273 | 1.6 | 8.0 | 0.00 | 0.03 | 0.00 | 80 | 1015.1 |
| 20260904175836 | 22 | 178 | 1.6 | 8.0 | 0.00 | 0.03 | 0.00 | 82 | 1015.1 |
| 20260904175407 | 22 | 218 | 1.6 | 9.7 | 0.00 | 0.03 | 0.00 | 81 | 1015.2 |
| 20260904174845 | 22 | 229 | 4.8 | 11.3 | 0.00 | 0.03 | 0.00 | 81 | 1015.2 |
| 20260904174348 | 22 | 28 | 4.8 | 11.3 | 0.00 | 0.03 | 0.00 | 79 | 1015.2 |
| 20260904173846 | 22 | 200 | 4.8 | 9.7 | 0.00 | 0.03 | 0.00 | 81 | 1015.3 |
| 20260904173343 | 22 | 51 | 1.6 | 6.4 | 0.00 | 0.03 | 0.00 | 80 | 1015.3 |
| 20260904172846 | 22 | 105 | 1.6 | 9.7 | 0.00 | 0.03 | 0.00 | 79 | 1015.3 |
| 20260904172339 | 22 | 174 | 3.2 | 9.7 | 0.00 | 0.03 | 0.00 | 78 | 1015.6 |
| 20260904171832 | 22 | 303 | 3.2 | 9.7 | 0.00 | 0.03 | 0.00 | 79 | 1015.4 |
| 20260904171355 | 21 | 206 | 3.2 | 6.4 | 0.00 | 0.03 | 0.00 | 79 | 1015.5 |
| 20260904170840 | 22 | 176 | 1.6 | 8.0 | 0.00 | 0.03 | 0.00 | 78 | 1015.8 |
| 20260904170338 | 22 | 298 | 3.2 | 6.4 | 0.00 | 0.03 | 0.00 | 80 | 1015.9 |
| 20260904165837 | 21 | 141 | 1.6 | 4.8 | 0.00 | 0.03 | 0.00 | 80 | 1015.8 |
| 20260904165340 | 21 | 227 | 1.6 | 6.4 | 0.00 | 0.03 | 0.00 | 81 | 1015.9 |
| 20260904164834 | 21 | 37 | 1.6 | 6.4 | 0.00 | 0.03 | 0.00 | 79 | 1016.0 |
| 20260904164338 | 21 | 274 | 3.2 | 6.4 | 0.00 | 0.03 | 0.00 | 79 | 1015.9 |
| 20260904163843 | 21 | 192 | 1.6 | 4.8 | 0.00 | 0.03 | 0.00 | 79 | 1015.8 |
| 20260904163341 | 21 | 192 | 1.6 | 8.0 | 0.00 | 0.03 | 0.00 | 79 | 1015.9 |
| 20260904162835 | 21 | 221 | 3.2 | 8.0 | 0.00 | 0.03 | 0.00 | 79 | 1016.1 |
| 20260904162340 | 21 | 176 | 1.6 | 4.8 | 0.00 | 0.03 | 0.00 | 78 | 1015.9 |
| 20260904161836 | 21 | 360 | 1.6 | 6.4 | 0.00 | 0.03 | 0.00 | 78 | 1016.0 |
| 20260904161338 | 21 | 355 | 3.2 | 6.4 | 0.00 | 0.03 | 0.00 | 76 | 1015.9 |
| 20260904160835 | 22 | 253 | 1.6 | 9.7 | 0.00 | 0.03 | 0.00 | 78 | 1016.0 |
| 20260904160341 | 22 | 218 | 4.8 | 9.7 | 0.00 | 0.03 | 0.00 | 77 | 1015.9 |
| 20260904155843 | 22 | 248 | 4.8 | 8.0 | 0.00 | 0.03 | 0.00 | 76 | 1015.9 |
| 20260904155408 | 22 | 103 | 1.6 | 6.4 | 0.00 | 0.03 | 0.00 | 77 | 1015.7 |
| 20260904154908 | 21 | 192 | 3.2 | 6.4 | 0.00 | 0.03 | 0.00 | 76 | 1015.6 |
| 20260904154330 | 21 | 185 | 4.8 | 6.4 | 0.00 | 0.03 | 0.00 | 75 | 1015.6 |
| 20260904153838 | 21 | 211 | 1.6 | 9.7 | 0.00 | 0.03 | 0.00 | 76 | 1015.5 |
| 20260904153338 | 21 | 355 | 4.8 | 9.7 | 0.00 | 0.03 | 0.00 | 73 | 1015.5 |
| 20260904152834 | 21 | 134 | 3.2 | 11.3 | 0.00 | 0.03 | 0.00 | 74 | 1015.6 |
| 20260904152340 | 21 | 221 | 6.4 | 11.3 | 0.00 | 0.03 | 0.00 | 74 | 1015.5 |
| 20260904151900 | 21 | 193 | 3.2 | 6.4 | 0.00 | 0.03 | 0.00 | 73 | 1015.4 |
| 20260904151335 | 21 | 193 | 1.6 | 6.4 | 0.00 | 0.03 | 0.00 | 72 | 1015.7 |
| 20260904150844 | 21 | 42 | 1.6 | 9.7 | 0.00 | 0.03 | 0.00 | 70 | 1015.7 |
| 20260904150336 | 21 | 346 | 4.8 | 9.7 | 0.00 | 0.03 | 0.00 | 71 | 1015.6 |
| 20260904145839 | 21 | 194 | 1.6 | 6.4 | 0.00 | 0.03 | 0.00 | 73 | 1015.5 |
| 20260904145338 | 21 | 123 | 3.2 | 6.4 | 0.00 | 0.03 | 0.00 | 73 | 1015.5 |
| 20260904144848 | 21 | 216 | 1.6 | 8.0 | 0.00 | 0.03 | 0.00 | 76 | 1015.5 |
| 20260904144332 | 21 | 219 | 3.2 | 8.0 | 0.00 | 0.03 | 0.00 | 73 | 1015.4 |
| 20260904143834 | 21 | 92 | 1.6 | 4.8 | 0.00 | 0.03 | 0.00 | 78 | 1015.4 |
| 20260904143358 | 21 | 92 | 1.6 | 4.8 | 0.00 | 0.03 | 0.00 | 79 | 1015.4 |
| 20260904142907 | 21 | 76 | 1.6 | 4.8 | 0.00 | 0.03 | 0.00 | 79 | 1015.3 |
| 20260904142349 | 20 | 101 | 0.0 | 4.8 | 0.00 | 0.03 | 0.00 | 78 | 1015.2 |
| 20260904141849 | 20 | 102 | 0.0 | 4.8 | 0.00 | 0.03 | 0.00 | 78 | 1015.1 |
| 20260904141342 | 20 | 102 | 0.0 | 6.4 | 0.00 | 0.03 | 0.00 | 80 | 1015.0 |
| 20260904140835 | 20 | 102 | 0.0 | 6.4 | 0.00 | 0.03 | 0.00 | 82 | 1014.9 |
| 20260904140330 | 20 | 102 | 3.2 | 6.4 | 0.00 | 0.03 | 0.00 | 81 | 1015.0 |
| 20260904135909 | 20 | 45 | 0.0 | 4.8 | 0.00 | 0.03 | 0.00 | 82 | 1014.9 |
| 20260904135339 | 20 | 45 | 3.2 | 4.8 | 0.00 | 0.03 | 0.00 | 82 | 1014.9 |
| 20260904134850 | 20 | 45 | 1.6 | 6.4 | 0.00 | 0.03 | 0.00 | 83 | 1014.9 |
| 20260904134332 | 20 | 26 | 3.2 | 6.4 | 0.00 | 0.03 | 0.00 | 83 | 1015.0 |
| 20260904133857 | 20 | 105 | 4.8 | 6.4 | 0.00 | 0.03 | 0.00 | 82 | 1015.0 |
| 20260904133349 | 20 | 97 | 1.6 | 6.4 | 0.00 | 0.03 | 0.00 | 85 | 1015.1 |
| 20260904132838 | 20 | 84 | 1.6 | 4.8 | 0.00 | 0.03 | 0.00 | 81 | 1015.2 |
| 20260904132346 | 20 | 84 | 0.0 | 3.2 | 0.00 | 0.03 | 0.00 | 82 | 1015.3 |
| 20260904131851 | 19 | 84 | 0.0 | 3.2 | 0.00 | 0.03 | 0.00 | 83 | 1015.4 |
| 20260904131340 | 19 | 84 | 0.0 | 3.2 | 0.00 | 0.03 | 0.00 | 83 | 1015.4 |
| 20260904130833 | 19 | 84 | 0.0 | 1.6 | 0.00 | 0.03 | 0.00 | 83 | 1015.4 |
| 20260904130342 | 19 | 84 | 0.0 | 3.2 | 0.00 | 0.03 | 0.00 | 84 | 1015.3 |
| 20260904125833 | 19 | 84 | 1.6 | 4.8 | 0.00 | 0.03 | 0.00 | 82 | 1015.4 |
| 20260904125331 | 19 | 84 | 3.2 | 4.8 | 0.00 | 0.03 | 0.00 | 81 | 1015.6 |
| 20260904124838 | 19 | 84 | 1.6 | 4.8 | 0.00 | 0.03 | 0.00 | 82 | 1015.8 |